| time (UTC) | temp C | wind direction | speed KPH | gust KPH | rain 1hr cm | rain 24hr cm | rain mn cm | humidity % | barometer mb |
| 20260506185434 | 21 | 346 | 6.4 | 11.3 | 0.00 | 0.00 | 0.00 | 80 | 1013.7 |
| 20260506184931 | 21 | 15 | 6.4 | 11.3 | 0.00 | 0.00 | 0.00 | 79 | 1013.7 |
| 20260506184428 | 21 | 305 | 11.3 | 12.9 | 0.00 | 0.00 | 0.00 | 80 | 1013.7 |
| 20260506183925 | 21 | 350 | 9.7 | 12.9 | 0.00 | 0.00 | 0.00 | 81 | 1013.6 |
| 20260506183420 | 22 | 311 | 9.7 | 12.9 | 0.00 | 0.00 | 0.00 | 78 | 1013.7 |
| 20260506182918 | 21 | 356 | 3.2 | 4.8 | 0.00 | 0.00 | 0.00 | 79 | 1013.7 |
| 20260506182415 | 21 | 39 | 9.7 | 12.9 | 0.00 | 0.00 | 0.00 | 80 | 1013.7 |
| 20260506181912 | 21 | 332 | 8.0 | 11.3 | 0.00 | 0.00 | 0.00 | 80 | 1013.5 |
| 20260506181410 | 21 | 356 | 6.4 | 6.4 | 0.00 | 0.00 | 0.00 | 80 | 1014.1 |
| 20260506180907 | 21 | 329 | 4.8 | 6.4 | 0.00 | 0.00 | 0.00 | 80 | 1013.7 |
| 20260506180403 | 21 | 338 | 0.0 | 1.6 | 0.00 | 0.00 | 0.00 | 81 | 1013.5 |
| 20260506175900 | 20 | 29 | 6.4 | 6.4 | 0.00 | 0.00 | 0.00 | 81 | 1013.5 |
| 20260506175356 | 20 | 311 | 11.3 | 12.9 | 0.00 | 0.00 | 0.00 | 83 | 1013.2 |
| 20260506174853 | 20 | 65 | 8.0 | 11.3 | 0.00 | 0.00 | 0.00 | 84 | 1013.4 |
| 20260506174351 | 20 | 8 | 6.4 | 6.4 | 0.00 | 0.00 | 0.00 | 83 | 1013.1 |
| 20260506173848 | 20 | 359 | 9.7 | 11.3 | 0.00 | 0.00 | 0.00 | 84 | 1013.1 |
| 20260506173345 | 19 | 76 | 3.2 | 11.3 | 0.00 | 0.00 | 0.00 | 84 | 1013.4 |
| 20260506172842 | 18 | 32 | 6.4 | 9.7 | 0.00 | 0.00 | 0.00 | 85 | 1013.6 |
| 20260506172338 | 19 | 25 | 4.8 | 6.4 | 0.00 | 0.00 | 0.00 | 85 | 1013.7 |
| 20260506171836 | 18 | 323 | 4.8 | 4.8 | 0.00 | 0.00 | 0.00 | 87 | 1013.4 |
| 20260506171333 | 18 | 26 | 3.2 | 4.8 | 0.00 | 0.00 | 0.00 | 86 | 1013.5 |
| 20260506170831 | 18 | 33 | 3.2 | 9.7 | 0.00 | 0.00 | 0.00 | 88 | 1013.6 |
| 20260506170326 | 17 | 27 | 12.9 | 20.9 | 0.00 | 0.00 | 0.00 | 88 | 1013.6 |
| 20260506165825 | 17 | 43 | 6.4 | 9.7 | 0.00 | 0.00 | 0.00 | 89 | 1013.7 |
| 20260506165323 | 17 | 45 | 8.0 | 9.7 | 0.00 | 0.00 | 0.00 | 89 | 1013.9 |
| 20260506164814 | 17 | 44 | 1.6 | 4.8 | 0.00 | 0.00 | 0.00 | 90 | 1014.0 |
| 20260506164310 | 17 | 25 | 6.4 | 12.9 | 0.00 | 0.00 | 0.00 | 89 | 1014.3 |
| 20260506163808 | 17 | 7 | 9.7 | 14.5 | 0.00 | 0.00 | 0.00 | 89 | 1014.7 |
| 20260506163302 | 17 | 351 | 3.2 | 3.2 | 0.00 | 0.00 | 0.00 | 90 | 1014.4 |
| 20260506162758 | 16 | 21 | 1.6 | 4.8 | 0.00 | 0.00 | 0.00 | 92 | 1014.4 |
| 20260506162256 | 16 | 56 | 1.6 | 3.2 | 0.00 | 0.00 | 0.00 | 93 | 1014.8 |
| 20260506161753 | 16 | 25 | 11.3 | 16.1 | 0.00 | 0.00 | 0.00 | 94 | 1014.5 |
| 20260506161250 | 16 | 333 | 8.0 | 25.7 | 0.00 | 0.00 | 0.00 | 95 | 1015.1 |
| 20260506160747 | 16 | 332 | 14.5 | 20.9 | 0.00 | 0.00 | 0.00 | 96 | 1015.5 |
| 20260506160244 | 16 | 331 | 12.9 | 14.5 | 0.00 | 0.00 | 0.00 | 96 | 1015.8 |
| 20260506155743 | 16 | 36 | 9.7 | 17.7 | 0.00 | 0.00 | 0.00 | 95 | 1015.2 |
| 20260506155239 | 16 | 359 | 4.8 | 9.7 | 0.00 | 0.00 | 0.00 | 95 | 1015.3 |
| 20260506153347 | 17 | 321 | 14.5 | 16.1 | 0.00 | 0.00 | 0.00 | 94 | 1014.9 |
| 20260506152844 | 18 | 327 | 14.5 | 17.7 | 0.00 | 0.00 | 0.00 | 94 | 1014.8 |
| 20260506152341 | 18 | 10 | 11.3 | 14.5 | 0.00 | 0.00 | 0.00 | 94 | 1014.5 |
| 20260506151839 | 18 | 319 | 11.3 | 17.7 | 0.00 | 0.00 | 0.00 | 94 | 1014.2 |
| 20260506151336 | 18 | 347 | 11.3 | 17.7 | 0.00 | 0.00 | 0.00 | 93 | 1013.9 |
| 20260506150833 | 18 | 344 | 12.9 | 16.1 | 0.00 | 0.00 | 0.00 | 93 | 1013.9 |
| 20260506150330 | 18 | 294 | 24.1 | 33.8 | 0.00 | 0.00 | 0.00 | 93 | 1013.7 |
| 20260506145827 | 19 | 25 | 9.7 | 12.9 | 0.00 | 0.00 | 0.00 | 92 | 1013.4 |
| 20260506145323 | 20 | 27 | 12.9 | 24.1 | 0.00 | 0.00 | 0.00 | 91 | 1013.1 |
| 20260506144821 | 21 | 322 | 11.3 | 16.1 | 0.00 | 0.00 | 0.00 | 90 | 1012.5 |
| 20260506144317 | 25 | 16 | 11.3 | 20.9 | 0.00 | 0.00 | 0.00 | 86 | 1012.4 |
| 20260506143815 | 25 | 157 | 1.6 | 1.6 | 0.00 | 0.00 | 0.00 | 89 | 1012.2 |
| 20260506104524 | 23 | 158 | 3.2 | 3.2 | 0.00 | 0.00 | 0.00 | 94 | 1010.6 |
| 20260506104016 | 23 | 158 | 3.2 | 3.2 | 0.00 | 0.00 | 0.00 | 94 | 1010.6 |
| 20260506103513 | 23 | 163 | 4.8 | 4.8 | 0.00 | 0.00 | 0.00 | 94 | 1010.6 |
| 20260506072906 | 23 | 178 | 4.8 | 6.4 | 0.00 | 0.00 | 0.00 | 92 | 1009.8 |
| 20260506072403 | 23 | 178 | 4.8 | 6.4 | 0.00 | 0.00 | 0.00 | 92 | 1009.8 |
| 20260506071900 | 23 | 178 | 4.8 | 6.4 | 0.00 | 0.00 | 0.00 | 92 | 1009.8 |
| 20260506062411 | 23 | 210 | 9.7 | 24.1 | 0.00 | 0.00 | 0.00 | 92 | 1009.8 |
| 20260506061906 | 23 | 135 | 17.7 | 24.1 | 0.00 | 0.00 | 0.00 | 92 | 1009.8 |
| 20260506061403 | 23 | 190 | 8.0 | 12.9 | 0.00 | 0.00 | 0.00 | 92 | 1009.6 |
| 20260506060901 | 23 | 189 | 9.7 | 14.5 | 0.00 | 0.00 | 0.00 | 92 | 1009.6 |
| 20260506060359 | 23 | 191 | 14.5 | 17.7 | 0.00 | 0.00 | 0.00 | 92 | 1009.7 |
| 20260506051331 | 24 | 173 | 12.9 | 16.1 | 0.00 | 0.00 | 0.00 | 91 | 1010.0 |
| 20260506050828 | 24 | 146 | 8.0 | 11.3 | 0.00 | 0.00 | 0.00 | 91 | 1009.9 |
| 20260506050325 | 24 | 56 | 9.7 | 16.1 | 0.00 | 0.00 | 0.00 | 91 | 1009.9 |
| 20260506044816 | 24 | 193 | 9.7 | 12.9 | 0.00 | 0.00 | 0.00 | 92 | 1009.8 |
| 20260506044314 | 24 | 140 | 6.4 | 11.3 | 0.00 | 0.00 | 0.00 | 92 | 1009.8 |
| 20260506043810 | 24 | 157 | 9.7 | 17.7 | 0.00 | 0.00 | 0.00 | 92 | 1009.9 |
| 20260506043308 | 24 | 148 | 11.3 | 14.5 | 0.00 | 0.00 | 0.00 | 92 | 1009.8 |
| 20260506042806 | 24 | 157 | 6.4 | 6.4 | 0.00 | 0.00 | 0.00 | 91 | 1009.8 |
| 20260506042305 | 24 | 127 | 8.0 | 9.7 | 0.00 | 0.00 | 0.00 | 91 | 1009.8 |
| 20260506041803 | 24 | 115 | 11.3 | 14.5 | 0.00 | 0.00 | 0.00 | 91 | 1009.8 |
| 20260506041259 | 24 | 206 | 8.0 | 11.3 | 0.00 | 0.00 | 0.00 | 91 | 1009.7 |
| 20260506040757 | 24 | 160 | 6.4 | 9.7 | 0.00 | 0.00 | 0.00 | 91 | 1009.7 |
| 20260506040254 | 24 | 154 | 4.8 | 6.4 | 0.00 | 0.00 | 0.00 | 90 | 1009.7 |
| 20260506035751 | 25 | 138 | 8.0 | 9.7 | 0.00 | 0.00 | 0.00 | 90 | 1009.6 |
| 20260506035248 | 25 | 196 | 11.3 | 16.1 | 0.00 | 0.00 | 0.00 | 89 | 1009.4 |
| 20260506034744 | 25 | 123 | 8.0 | 11.3 | 0.00 | 0.00 | 0.00 | 89 | 1009.5 |
| 20260506034242 | 25 | 131 | 14.5 | 20.9 | 0.00 | 0.00 | 0.00 | 89 | 1009.4 |
| 20260506033739 | 25 | 149 | 9.7 | 12.9 | 0.00 | 0.00 | 0.00 | 89 | 1009.4 |
| 20260506033236 | 25 | 199 | 6.4 | 9.7 | 0.00 | 0.00 | 0.00 | 89 | 1009.4 |
| 20260506032733 | 25 | 150 | 8.0 | 9.7 | 0.00 | 0.00 | 0.00 | 89 | 1009.4 |
| 20260506032229 | 25 | 157 | 6.4 | 9.7 | 0.00 | 0.00 | 0.00 | 89 | 1009.3 |
| 20260506031726 | 25 | 107 | 9.7 | 14.5 | 0.00 | 0.00 | 0.00 | 88 | 1009.1 |
| 20260506031224 | 25 | 94 | 8.0 | 11.3 | 0.00 | 0.00 | 0.00 | 88 | 1009.3 |
| 20260506030722 | 25 | 128 | 3.2 | 3.2 | 0.00 | 0.00 | 0.00 | 88 | 1009.2 |
| 20260506030219 | 25 | 112 | 11.3 | 14.5 | 0.00 | 0.00 | 0.00 | 88 | 1008.9 |
| 20260506025716 | 25 | 132 | 16.1 | 20.9 | 0.00 | 0.00 | 0.00 | 87 | 1009.1 |
| 20260506025212 | 25 | 172 | 8.0 | 9.7 | 0.00 | 0.00 | 0.00 | 87 | 1008.9 |
| 20260506024709 | 25 | 83 | 4.8 | 6.4 | 0.00 | 0.00 | 0.00 | 86 | 1008.9 |
| 20260506024205 | 25 | 138 | 4.8 | 6.4 | 0.00 | 0.00 | 0.00 | 86 | 1008.9 |
| 20260506023702 | 25 | 130 | 3.2 | 4.8 | 0.00 | 0.00 | 0.00 | 85 | 1008.7 |
| 20260506023200 | 26 | 151 | 6.4 | 11.3 | 0.00 | 0.00 | 0.00 | 84 | 1008.5 |
| 20260506022656 | 26 | 188 | 6.4 | 9.7 | 0.00 | 0.00 | 0.00 | 83 | 1008.4 |
| 20260506022154 | 26 | 95 | 3.2 | 4.8 | 0.00 | 0.00 | 0.00 | 83 | 1008.2 |
| 20260506021652 | 26 | 186 | 4.8 | 4.8 | 0.00 | 0.00 | 0.00 | 83 | 1008.2 |
| 20260506021148 | 26 | 117 | 1.6 | 1.6 | 0.00 | 0.00 | 0.00 | 83 | 1008.3 |
| 20260506020640 | 26 | 146 | 9.7 | 11.3 | 0.00 | 0.00 | 0.00 | 82 | 1008.1 |
| 20260506020137 | 26 | 133 | 4.8 | 9.7 | 0.00 | 0.00 | 0.00 | 82 | 1007.9 |
| 20260506015635 | 26 | 117 | 6.4 | 9.7 | 0.00 | 0.00 | 0.00 | 82 | 1007.9 |
| 20260506015132 | 26 | 126 | 6.4 | 9.7 | 0.00 | 0.00 | 0.00 | 82 | 1007.8 |
| 20260506014630 | 26 | 80 | 6.4 | 6.4 | 0.00 | 0.00 | 0.00 | 82 | 1007.8 |
| 20260506014125 | 26 | 134 | 3.2 | 4.8 | 0.00 | 0.00 | 0.00 | 82 | 1007.8 |
| 20260506013623 | 26 | 98 | 8.0 | 11.3 | 0.00 | 0.00 | 0.00 | 81 | 1007.7 |
| 20260506013119 | 26 | 162 | 3.2 | 3.2 | 0.00 | 0.00 | 0.00 | 81 | 1007.8 |
| 20260506012615 | 26 | 106 | 1.6 | 3.2 | 0.00 | 0.00 | 0.00 | 80 | 1007.8 |
| 20260506012112 | 26 | 163 | 3.2 | 4.8 | 0.00 | 0.00 | 0.00 | 80 | 1007.7 |
| 20260506011610 | 26 | 135 | 6.4 | 6.4 | 0.00 | 0.00 | 0.00 | 80 | 1007.6 |
| 20260506011106 | 27 | 175 | 6.4 | 9.7 | 0.00 | 0.00 | 0.00 | 79 | 1007.7 |
| 20260506010600 | 27 | 97 | 4.8 | 6.4 | 0.00 | 0.00 | 0.00 | 79 | 1007.9 |
| 20260506010056 | 27 | 122 | 6.4 | 9.7 | 0.00 | 0.00 | 0.00 | 79 | 1007.6 |
| 20260506005554 | 27 | 111 | 4.8 | 6.4 | 0.00 | 0.00 | 0.00 | 79 | 1007.8 |
| 20260506005049 | 27 | 128 | 9.7 | 11.3 | 0.00 | 0.00 | 0.00 | 78 | 1007.6 |
| 20260506004547 | 27 | 159 | 6.4 | 11.3 | 0.00 | 0.00 | 0.00 | 78 | 1007.5 |
| 20260506004043 | 27 | 129 | 6.4 | 6.4 | 0.00 | 0.00 | 0.00 | 78 | 1007.6 |
| 20260506003540 | 27 | 140 | 4.8 | 6.4 | 0.00 | 0.00 | 0.00 | 77 | 1007.7 |
| 20260506003036 | 27 | 164 | 6.4 | 11.3 | 0.00 | 0.00 | 0.00 | 77 | 1007.6 |
| 20260506002532 | 27 | 145 | 4.8 | 6.4 | 0.00 | 0.00 | 0.00 | 77 | 1007.7 |
| 20260506002028 | 27 | 167 | 14.5 | 16.1 | 0.00 | 0.00 | 0.00 | 77 | 1007.6 |
| 20260506001525 | 27 | 128 | 6.4 | 9.7 | 0.00 | 0.00 | 0.00 | 77 | 1007.6 |
| 20260506001022 | 27 | 125 | 4.8 | 4.8 | 0.00 | 0.00 | 0.00 | 77 | 1007.8 |
| 20260506000520 | 27 | 161 | 9.7 | 12.9 | 0.00 | 0.00 | 0.00 | 76 | 1007.7 |
| 20260506000017 | 27 | 159 | 11.3 | 14.5 | 0.00 | 0.00 | 0.00 | 76 | 1007.5 |
| 20260505235515 | 27 | 168 | 11.3 | 12.9 | 0.00 | 0.00 | 0.00 | 75 | 1007.7 |
| 20260505235011 | 27 | 182 | 6.4 | 9.7 | 0.00 | 0.00 | 0.00 | 76 | 1007.5 |
| 20260505234508 | 27 | 188 | 9.7 | 14.5 | 0.00 | 0.00 | 0.00 | 76 | 1007.6 |
| 20260505234005 | 27 | 170 | 9.7 | 11.3 | 0.00 | 0.00 | 0.00 | 75 | 1007.3 |
| 20260505233503 | 27 | 125 | 8.0 | 12.9 | 0.00 | 0.00 | 0.00 | 76 | 1007.3 |
| 20260505233000 | 27 | 138 | 12.9 | 14.5 | 0.00 | 0.00 | 0.00 | 75 | 1007.2 |
| 20260505232458 | 27 | 129 | 14.5 | 20.9 | 0.00 | 0.00 | 0.00 | 75 | 1007.1 |
| 20260505231954 | 28 | 72 | 6.4 | 9.7 | 0.00 | 0.00 | 0.00 | 75 | 1007.0 |
| 20260505231451 | 28 | 181 | 6.4 | 12.9 | 0.00 | 0.00 | 0.00 | 74 | 1007.3 |
| 20260505230949 | 28 | 183 | 11.3 | 12.9 | 0.00 | 0.00 | 0.00 | 73 | 1007.4 |
| 20260505230442 | 28 | 204 | 14.5 | 16.1 | 0.00 | 0.00 | 0.00 | 74 | 1007.2 |
| 20260505225938 | 28 | 169 | 11.3 | 16.1 | 0.00 | 0.00 | 0.00 | 75 | 1007.1 |
| 20260505225435 | 28 | 107 | 12.9 | 16.1 | 0.00 | 0.00 | 0.00 | 74 | 1007.1 |
| 20260505224931 | 28 | 197 | 6.4 | 6.4 | 0.00 | 0.00 | 0.00 | 73 | 1007.0 |
| 20260505224428 | 28 | 109 | 6.4 | 11.3 | 0.00 | 0.00 | 0.00 | 74 | 1007.1 |
| 20260505223925 | 28 | 150 | 6.4 | 6.4 | 0.00 | 0.00 | 0.00 | 73 | 1007.2 |
| 20260505223422 | 28 | 160 | 11.3 | 16.1 | 0.00 | 0.00 | 0.00 | 74 | 1007.1 |
| 20260505222918 | 28 | 185 | 12.9 | 14.5 | 0.00 | 0.00 | 0.00 | 74 | 1007.1 |
| 20260505222415 | 28 | 126 | 9.7 | 14.5 | 0.00 | 0.00 | 0.00 | 74 | 1006.9 |
| 20260505221910 | 28 | 166 | 11.3 | 16.1 | 0.00 | 0.00 | 0.00 | 74 | 1006.8 |
| 20260505221408 | 28 | 114 | 14.5 | 16.1 | 0.00 | 0.00 | 0.00 | 74 | 1007.2 |
| 20260505220905 | 28 | 101 | 12.9 | 16.1 | 0.00 | 0.00 | 0.00 | 74 | 1007.1 |
| 20260505220402 | 28 | 189 | 17.7 | 22.5 | 0.00 | 0.00 | 0.00 | 74 | 1007.2 |
| 20260505215900 | 28 | 142 | 14.5 | 17.7 | 0.00 | 0.00 | 0.00 | 71 | 1007.4 |
| 20260505215357 | 28 | 164 | 6.4 | 9.7 | 0.00 | 0.00 | 0.00 | 72 | 1007.4 |
| 20260505214855 | 28 | 201 | 14.5 | 14.5 | 0.00 | 0.00 | 0.00 | 71 | 1007.3 |
| 20260505214352 | 28 | 159 | 19.3 | 22.5 | 0.00 | 0.00 | 0.00 | 71 | 1007.6 |
| 20260505213849 | 28 | 174 | 16.1 | 16.1 | 0.00 | 0.00 | 0.00 | 72 | 1007.7 |
| 20260505213347 | 28 | 188 | 14.5 | 16.1 | 0.00 | 0.00 | 0.00 | 72 | 1007.4 |
| 20260505212843 | 28 | 207 | 14.5 | 17.7 | 0.00 | 0.00 | 0.00 | 72 | 1007.6 |
| 20260505212340 | 28 | 187 | 11.3 | 14.5 | 0.00 | 0.00 | 0.00 | 72 | 1007.6 |
| 20260505211836 | 28 | 172 | 17.7 | 20.9 | 0.00 | 0.00 | 0.00 | 72 | 1007.8 |
| 20260505211334 | 27 | 143 | 9.7 | 12.9 | 0.00 | 0.00 | 0.00 | 74 | 1007.9 |
| 20260505210830 | 27 | 183 | 17.7 | 22.5 | 0.00 | 0.00 | 0.00 | 74 | 1007.7 |
| 20260505210327 | 27 | 99 | 17.7 | 20.9 | 0.00 | 0.00 | 0.00 | 73 | 1007.8 |
| 20260505205824 | 27 | 101 | 12.9 | 17.7 | 0.00 | 0.00 | 0.00 | 75 | 1008.0 |
| 20260505205323 | 27 | 188 | 17.7 | 24.1 | 0.00 | 0.00 | 0.00 | 74 | 1008.1 |
| 20260505204819 | 27 | 147 | 19.3 | 22.5 | 0.00 | 0.00 | 0.00 | 74 | 1008.0 |
| 20260505204317 | 27 | 171 | 9.7 | 12.9 | 0.00 | 0.00 | 0.00 | 76 | 1007.9 |
| 20260505203814 | 27 | 142 | 17.7 | 20.9 | 0.00 | 0.00 | 0.00 | 75 | 1008.2 |
| 20260505203311 | 27 | 153 | 16.1 | 24.1 | 0.00 | 0.00 | 0.00 | 76 | 1008.2 |
| 20260505202807 | 27 | 115 | 9.7 | 14.5 | 0.00 | 0.00 | 0.00 | 75 | 1008.5 |
| 20260505202306 | 27 | 114 | 11.3 | 22.5 | 0.00 | 0.00 | 0.00 | 76 | 1008.4 |
| 20260505201800 | 27 | 194 | 16.1 | 17.7 | 0.00 | 0.00 | 0.00 | 76 | 1008.7 |
| 20260505201257 | 27 | 90 | 11.3 | 16.1 | 0.00 | 0.00 | 0.00 | 75 | 1008.8 |
| 20260505200756 | 27 | 146 | 12.9 | 16.1 | 0.00 | 0.00 | 0.00 | 76 | 1008.7 |
| 20260505200252 | 27 | 169 | 11.3 | 14.5 | 0.00 | 0.00 | 0.00 | 76 | 1008.5 |
| 20260505195747 | 27 | 180 | 14.5 | 25.7 | 0.00 | 0.00 | 0.00 | 74 | 1008.9 |
| 20260505195245 | 27 | 232 | 14.5 | 17.7 | 0.00 | 0.00 | 0.00 | 76 | 1009.0 |
| 20260505194742 | 27 | 153 | 12.9 | 16.1 | 0.00 | 0.00 | 0.00 | 77 | 1008.9 |
| 20260505194239 | 27 | 130 | 8.0 | 12.9 | 0.00 | 0.00 | 0.00 | 77 | 1009.2 |
| 20260505193734 | 27 | 199 | 16.1 | 16.1 | 0.00 | 0.00 | 0.00 | 76 | 1009.4 |
| 20260505193232 | 26 | 139 | 12.9 | 16.1 | 0.00 | 0.00 | 0.00 | 77 | 1009.4 |
| 20260505192730 | 26 | 204 | 16.1 | 20.9 | 0.00 | 0.00 | 0.00 | 77 | 1009.1 |
| 20260505192228 | 26 | 156 | 12.9 | 17.7 | 0.00 | 0.00 | 0.00 | 78 | 1009.2 |
| 20260505191726 | 26 | 201 | 14.5 | 16.1 | 0.00 | 0.00 | 0.00 | 79 | 1009.2 |
| 20260505191224 | 26 | 190 | 17.7 | 20.9 | 0.00 | 0.00 | 0.00 | 78 | 1009.5 |
| 20260505190720 | 26 | 175 | 8.0 | 9.7 | 0.00 | 0.00 | 0.00 | 80 | 1009.4 |
| 20260505190220 | 25 | 162 | 8.0 | 11.3 | 0.00 | 0.00 | 0.00 | 79 | 1009.5 |